Preview of NWS' New Version of Forecast
This preview is not operational and should not be used for support decisions.

Regional Weather Roundup (RWR)

Issued by National Weather Service (NWS)

                            
000
ASUS42 KTBW 220019
RWRFL 
FLORIDA REGIONAL WEATHER ROUNDUP
NATIONAL WEATHER SERVICE TAMPA BAY RUSKIN FL
800 PM EDT SUN JUL 21 2019

NOTE: "FAIR" INDICATES FEW OR NO CLOUDS BELOW 12,000 FEET WITH NO
SIGNIFICANT WEATHER AND/OR OBSTRUCTIONS TO VISIBILITY.

FLZ001>010-012>015-112-114-115-220100-
PANHANDLE FLORIDA
  
CITY           SKY/WX    TMP DP  RH WIND       PRES   REMARKS
PENSACOLA      FAIR      83  72  69 S9        30.00F                  
PENSACOLA NAS  FAIR      81  72  74 SW8       30.01S                  
MILTON NAS     FAIR      83  73  72 S7          N/A                   
CRESTVIEW      FAIR      85  70  60 SW7       30.02R                  
DUKE FIELD     FAIR      85  70  61 S10       30.00S                  
VALPARAISO     FAIR      84  72  66 SW8       30.00S                  
TRI COUNTY     FAIR      80  77  90 CALM      30.03R                  
PANAMA CITY    FAIR      83  73  72 SW6       30.01R                  
TYNDALL AFB    FAIR      84  73  69 SW7       30.01R                  
APALACHICOLA   FAIR      84  74  71 S5        30.02R                  

STATION/POSITION SKY/WX   TEMP    WIND        PRES    WAVE   SWELL
                          AIR SEA DIR/SP/G            HT/PER HT/PER
                          (F)     (DEG/KT/KT) (MB)    (FT/S) (FT/S)
30.1N   87.6W              81 86  220/  8/ 10 1016.3
29.2N   88.2W              81 85  220/  6/  6 1016.5
28.8N   86.0W                 86  260/  4/  6 1016.7R   1/ 5   2/ 5
PANAMA CITY BEAC           83 88  250/  7/  9 1016.6R
TOWER C                    83     150/  9/ 10 1017.5R
28.5N   84.5W                      90/  4/  6 1017.8

$$
FLZ011-016>038-118-127-128-134-139-239-220100-
NORTH FLORIDA
  
CITY           SKY/WX    TMP DP  RH WIND       PRES   REMARKS
MARIANNA       FAIR      85  73  67 CALM      30.01R                  
TALLAHASSEE    FAIR      82  73  74 SE6       30.04R                  
PERRY          MOCLDY    83  72  70 SE13      30.08R                  
LIVE OAK       MOCLDY    77  75  94 VRB6      30.09R                  
CROSS CITY     FAIR      74  67  80 E7        30.09F                  
LAKE CITY      RAIN      77  70  78 SW8G17    30.10R                  
GAINESVILLE    FAIR      71  70  96 W5        30.11F                  
WILLISTON      LGT RAIN  72  70  95 SW3       30.09S                  
PALATKA        FAIR      75  70  83 SW3       30.09R                  
MAYPORT NAS    FAIR      83  73  72 S8        30.07R                  
JACKSONVILLE   MOCLDY    79  71  76 W7        30.07R                  
JAX NAS        MOCLDY    79  69  71 W5        30.08R                  
JAX CECIL      MOCLDY    75  73  94 CALM      30.08R                  
FERNANDINA BEA FAIR      83  74  73 W8        30.07R                  
ST AUGUSTINE   FAIR      83  75  77 W6        30.08R                  
PALM COAST     FAIR      76  71  83 SW3       30.08R                  

STATION/POSITION SKY/WX   TEMP    WIND        PRES    WAVE   SWELL
                          AIR SEA DIR/SP/G            HT/PER HT/PER
                          (F)     (DEG/KT/KT) (MB)    (FT/S) (FT/S)
SHELL POINT      NOT AVBL
KEATON BEACH               81     130/ 17/ 22 1018.5R
CEDAR KEY                  81     150/ 16/ 17 1017.5F
FERNANDINA                 87 88  170/  7/ 11 1018.6R
30.7N   81.3W                 84                N/A     2/ 3
MAYPORT                    84 85  190/  5/ 11 1018.4R
31.4N   80.9W              84 84  180/ 14/ 16 1017.0R   2/ 3   2/ 8
ST AUGUSTINE               83 80  230/  8/ 10 1018.4R

$$
FLZ040-043>046-052-053-057-058-063-144-220100-
INTERIOR CENTRAL FLORIDA
  
CITY           SKY/WX    TMP DP  RH WIND       PRES   REMARKS
OCALA          LGT RAIN  72  70  94 CALM      30.10S                  
LEESBURG       LGT RAIN  74  71  91 CALM      30.10R                  
SANFORD        FAIR      75  70  84 W12       30.08R                  
ORLANDO EXEC   FAIR      77  71  82 NW8       30.08R                  
ORLANDO INTL   CLOUDY    76  68  76 W7        30.08R                  
KISSIMMEE      MOCLDY    75  70  84 NW6       30.09S                  
WINTER HAVEN   LGT RAIN  75  72  90 N5        30.09S                  
LAKELAND       LGT RAIN  73  72  94 CALM      30.08S                  
BARTOW         FAIR      75  73  94 N5        30.07S                  
SEBRING        MOCLDY    77  71  82 NW6       30.07F                  
OKEECHOBEE     FAIR      77  68  73 CALM      30.06S                  

$$
FLZ041-047-054-059-064-141-147-220100-
EAST CENTRAL FLORIDA
  
CITY           SKY/WX    TMP DP  RH WIND       PRES   REMARKS
DAYTONA BEACH  MOCLDY    77  74  90 SW8       30.07R                  
DELAND         FAIR      73  70  88 NW5       30.09R                  
NEW SMYRNA BEA PTCLDY    79  73  83 NW8       30.09R                  
JFK SPACE CTR  CLEAR     83  68  59 S3        30.06R                  
TITUSVILLE     MOCLDY    84  75  74 VRB5      30.07R                  
CAPE CANAVERAL CLEAR     83  59  43 S3        30.05S                  
PATRICK AFB    FAIR      84  80  88 SE6       30.05S HX  96           
MELBOURNE      FAIR      85  75  72 SE5       30.05S                  
VERO BEACH     FAIR      84  72  67 SE8       30.05S                  
FT PIERCE      FAIR      84  72  67 SE7       30.05R                  
STUART         PTCLDY    82  73  74 SE8       30.06S                  

STATION/POSITION SKY/WX   TEMP    WIND        PRES    WAVE   SWELL
                          AIR SEA DIR/SP/G            HT/PER HT/PER
                          (F)     (DEG/KT/KT) (MB)    (FT/S) (FT/S)
28.5N   80.2W              84 84  180/  8/ 10 1017.9R   1/ 8   2/ 8
28.9N   78.5W              85 87  120/  8/ 10 1018.6    2/ 8   2/ 8
TRIDENT PIER               83 85  150/  7/  8 1019.4R
28.4N   80.5W                 83                N/A     1/ 8
27.5N   80.2W                 83                N/A     1/ 8

$$
FLZ050-056-061-142-242-148-248-149-249-151-251-155-255-
160-260-220100-
WEST CENTRAL FLORIDA
  
CITY           SKY/WX    TMP DP  RH WIND       PRES   REMARKS
CRYSTAL RIVER  LGT RAIN  72  70  94 CALM      30.06F                  
INVERNESS      RAIN      72  72 100 CALM      30.08F                  
BROOKSVILLE    MOCLDY    73  69  87 NE6       30.07F                  
CLEARWATER AIR FAIR      79  70  73 E5        30.05S                  
ST PETE CLEARW FAIR      77  72  84 E6        30.04F                  
TAMPA INTL     CLOUDY    79  71  76 VRB5      30.05F                  
TAMPA EXEC     FAIR      73  72  94 CALM      30.06F                  
PLANT CITY     FAIR     N/A N/A N/A MISG      30.09S                  
MACDILL AFB    FAIR      78  73  85 E7        30.05S                  
PETER O KNIGHT MOCLDY   N/A N/A N/A E7        30.06S                  
ST PETERSBURG  FAIR      80  71  74 E12       30.04F                  
SARASOTA       FAIR      77  72  84 E6        30.04R                  
VENICE         FAIR      81  72  74 E13       30.06S                  

STATION/POSITION SKY/WX   TEMP    WIND        PRES    WAVE   SWELL
                          AIR SEA DIR/SP/G            HT/PER HT/PER
                          (F)     (DEG/KT/KT) (MB)    (FT/S) (FT/S)
27.3N   84.2W                 87                N/A     2/ 5
CLEARWATER BEACH           81 87  100/  5/ 11 1017.6F
MIDDLE TAMPA BAY           76      90/ 10/ 11 1017.6F
VENICE                     78 86  110/ 11/ 14 1017.8R

$$
FLZ066-069-070-075>078-162-262-165-265-220100-
SOUTHWEST FLORIDA AND KEYS
  
CITY           SKY/WX    TMP DP  RH WIND       PRES   REMARKS
PUNTA GORDA    MOCLDY    76  74  93 E7        30.09R                  
FT MYERS       RAIN      73  71  93 CALM      30.07S FOG              
SOUTHWEST INTL RAIN      73  70  90 E3        30.08S                  
NAPLES         MOCLDY   N/A N/A N/A NE7       30.06                   
MARCO ISLAND   LGT RAIN  75  73  93 MISG      30.07S                  
IMMOKALEE      LGT RAIN  73  72  94 NW3       30.05F                  
MARATHON       FAIR      86  74  67 E7        30.02R                  
KEY WEST NAS   MOCLDY    87  73  62 E9        30.02R                  
KEY WEST INTL  FAIR      83  76  79 E7        30.03R                  

STATION/POSITION SKY/WX   TEMP    WIND        PRES    WAVE   SWELL
                          AIR SEA DIR/SP/G            HT/PER HT/PER
                          (F)     (DEG/KT/KT) (MB)    (FT/S) (FT/S)
NAPLES                     75 88              1018.4F
26.0N   85.6W              84 87   50/  8/ 10 1016.3R   2/ 5   2/ 5
DRY TORTUGAS               85     110/  8/  9 1016.2F
SAND KEY                   84      80/  8/ 10 1015.6
SOMBRERO KEY               85      80/ 11/ 12 1016.7
LONG KEY                   86                 1016.0

$$
FLZ067-068-071>074-168-172>174-220100-
SOUTHEAST FLORIDA 
  
CITY           SKY/WX    TMP DP  RH WIND       PRES   REMARKS
W PALM BEACH   MOCLDY    85  72  65 SE7       30.06R                  
BOCA RATON     PTCLDY    84  75  74 SE3       30.05R                  
FT LAUDER-EXEC MOCLDY    82  71  69 W8        30.05R                  
FT LAUDERDALE  MOCLDY    84  72  67 NW3       30.04R                  
POMPANO BEACH  FAIR      85  74  69 SE7       30.05R                  
PEMBROKE PINES FAIR      83  71  67 W5        30.06R                  
OPA LOCKA      FAIR      77  72  84 NW8       30.05R                  
MIAMI          MOCLDY    82  71  69 NW7       30.05R                  
WEST KENDALL   MOCLDY    80  73  79 NW10      30.04S                  
HOMESTEAD      FAIR      85  76  74 E3        30.03R                  

STATION/POSITION SKY/WX   TEMP    WIND        PRES    WAVE   SWELL
                          AIR SEA DIR/SP/G            HT/PER HT/PER
                          (F)     (DEG/KT/KT) (MB)    (FT/S) (FT/S)
PORT EVERGLADES            85     150/  4/  6 1017.4R
VIRGINIA KEY               85 89   CALM  /  2 1017.0R
LAKE WORTH                 83 85  150/  4/  5 1019.0R
FOWEY ROCKS                84 86   60/  3/  4 1017.7R
SETTLEMENT POINT           85     180/  3/  3 1018.0R

$$